| time (UTC) | temp C | wind direction | speed KPH | gust KPH | rain 1hr cm | rain 24hr cm | rain mn cm | humidity % | barometer mb |
| 20260503021516 | 15 | 61 | 0.0 | 0.0 | 0.00 | 0.00 | 0.00 | 67 | 1013.6 |
| 20260503020010 | 15 | 62 | 0.0 | 0.0 | 0.00 | 0.00 | 0.00 | 67 | 1013.5 |
| 20260503014509 | 15 | 64 | 0.0 | 0.0 | 0.00 | 0.00 | 0.00 | 67 | 1013.6 |
| 20260503013007 | 15 | 63 | 0.0 | 0.0 | 0.00 | 0.00 | 0.00 | 67 | 1013.7 |
| 20260503011515 | 15 | 63 | 0.0 | 0.0 | 0.00 | 0.00 | 0.00 | 66 | 1013.9 |
| 20260503010004 | 15 | 57 | 0.0 | 0.0 | 0.00 | 0.00 | 0.00 | 66 | 1013.9 |
| 20260503004502 | 15 | 68 | 0.0 | 0.0 | 0.00 | 0.00 | 0.00 | 66 | 1013.9 |
| 20260503003104 | 16 | 73 | 0.0 | 0.0 | 0.00 | 0.00 | 0.00 | 65 | 1013.9 |
| 20260503003005 | 16 | 73 | 0.0 | 0.0 | 0.00 | 0.00 | 0.00 | 65 | 1013.9 |
| 20260503001604 | 16 | 69 | 0.0 | 4.8 | 0.00 | 0.00 | 0.00 | 65 | 1014.1 |
| 20260503000055 | 16 | 85 | 0.0 | 0.0 | 0.00 | 0.00 | 0.00 | 65 | 1014.3 |
| 20260502234555 | 16 | 76 | 0.0 | 6.4 | 0.00 | 0.00 | 0.00 | 64 | 1014.3 |
| 20260502233051 | 16 | 87 | 0.0 | 0.0 | 0.00 | 0.00 | 0.00 | 64 | 1014.3 |
| 20260502231548 | 16 | 71 | 0.0 | 0.0 | 0.00 | 0.00 | 0.00 | 63 | 1014.3 |
| 20260502230046 | 16 | 76 | 0.0 | 0.0 | 0.00 | 0.00 | 0.00 | 63 | 1014.3 |
| 20260502224543 | 17 | 99 | 0.0 | 0.0 | 0.00 | 0.00 | 0.00 | 61 | 1014.4 |
| 20260502223040 | 17 | 100 | 0.0 | 0.0 | 0.00 | 0.00 | 0.00 | 60 | 1014.5 |
| 20260502221541 | 17 | 99 | 0.0 | 0.0 | 0.00 | 0.00 | 0.00 | 59 | 1014.5 |
| 20260502220050 | 18 | 84 | 0.0 | 0.0 | 0.00 | 0.00 | 0.00 | 58 | 1014.5 |
| 20260502214535 | 18 | 76 | 0.0 | 0.0 | 0.00 | 0.00 | 0.00 | 57 | 1014.4 |
| 20260502213038 | 18 | 76 | 0.0 | 0.0 | 0.00 | 0.00 | 0.00 | 56 | 1014.4 |
| 20260502211533 | 18 | 73 | 0.0 | 1.6 | 0.00 | 0.00 | 0.00 | 56 | 1014.4 |
| 20260502210032 | 18 | 58 | 0.0 | 4.8 | 0.00 | 0.00 | 0.00 | 56 | 1014.2 |
| 20260502204533 | 18 | 106 | 0.0 | 3.2 | 0.00 | 0.00 | 0.00 | 55 | 1014.3 |
| 20260502203038 | 19 | 77 | 0.0 | 4.8 | 0.00 | 0.00 | 0.00 | 54 | 1014.2 |
| 20260502201538 | 20 | 63 | 0.0 | 4.8 | 0.00 | 0.00 | 0.00 | 54 | 1014.1 |
| 20260502200033 | 20 | 70 | 0.0 | 0.0 | 0.00 | 0.00 | 0.00 | 52 | 1014.2 |
| 20260502194540 | 20 | 88 | 0.0 | 0.0 | 0.00 | 0.00 | 0.00 | 51 | 1014.1 |
| 20260502193032 | 21 | 79 | 0.0 | 0.0 | 0.00 | 0.00 | 0.00 | 50 | 1014.0 |
| 20260502191537 | 21 | 93 | 0.0 | 0.0 | 0.00 | 0.00 | 0.00 | 48 | 1014.0 |
| 20260502190029 | 22 | 162 | 0.0 | 0.0 | 0.00 | 0.00 | 0.00 | 48 | 1013.9 |
| 20260502184536 | 23 | 275 | 0.0 | 0.0 | 0.00 | 0.00 | 0.00 | 46 | 1013.6 |
| 20260502183029 | 24 | 275 | 0.0 | 0.0 | 0.00 | 0.00 | 0.00 | 44 | 1013.5 |
| 20260502181535 | 25 | 276 | 0.0 | 0.0 | 0.00 | 0.00 | 0.00 | 40 | 1013.5 |
| 20260502163042 | 28 | 326 | 0.0 | 0.0 | 0.00 | 0.00 | 0.00 | 29 | 1013.9 |
| 20260502161519 | 28 | 280 | 0.0 | 6.4 | 0.00 | 0.00 | 0.00 | 28 | 1014.1 |
| 20260502151512 | 30 | 155 | 1.6 | 11.3 | 0.00 | 0.00 | 0.00 | 27 | 1014.7 |
| 20260502123045 | 28 | 130 | 0.0 | 14.5 | 0.00 | 0.00 | 0.00 | 32 | 1017.2 |
| 20260502121542 | 27 | 177 | 0.0 | 11.3 | 0.00 | 0.00 | 0.00 | 32 | 1017.4 |
| 20260502114534 | 27 | 234 | 3.2 | 12.9 | 0.00 | 0.00 | 0.00 | 32 | 1017.8 |
| 20260502113030 | 27 | 342 | 3.2 | 16.1 | 0.00 | 0.00 | 0.00 | 34 | 1018.0 |
| 20260502111528 | 26 | 300 | 0.0 | 17.7 | 0.00 | 0.00 | 0.00 | 35 | 1018.2 |
| 20260502110125 | 26 | 304 | 1.6 | 12.9 | 0.00 | 0.00 | 0.00 | 36 | 1018.4 |
| 20260502104522 | 26 | 213 | 3.2 | 11.3 | 0.00 | 0.00 | 0.00 | 37 | 1018.7 |
| 20260502103019 | 25 | 203 | 0.0 | 12.9 | 0.00 | 0.00 | 0.00 | 39 | 1018.9 |
| 20260502101516 | 25 | 204 | 0.0 | 8.0 | 0.00 | 0.00 | 0.00 | 39 | 1019.1 |
| 20260502091502 | 22 | 202 | 4.8 | 17.7 | 0.00 | 0.00 | 0.00 | 41 | 1019.8 |
| 20260502071530 | 16 | 169 | 0.0 | 3.2 | 0.00 | 0.00 | 0.00 | 56 | 1020.5 |
| 20260502070033 | 15 | 185 | 0.0 | 3.2 | 0.00 | 0.00 | 0.00 | 55 | 1020.7 |
| 20260502064534 | 13 | 51 | 0.0 | 0.0 | 0.00 | 0.00 | 0.00 | 60 | 1020.7 |
| 20260502063025 | 13 | 90 | 0.0 | 0.0 | 0.00 | 0.00 | 0.00 | 59 | 1020.7 |
| 20260502061517 | 12 | 108 | 0.0 | 0.0 | 0.00 | 0.00 | 0.00 | 58 | 1020.6 |
| 20260502060016 | 12 | 50 | 0.0 | 3.2 | 0.00 | 0.00 | 0.00 | 59 | 1020.5 |
| 20260502054515 | 12 | 73 | 0.0 | 6.4 | 0.00 | 0.00 | 0.00 | 60 | 1020.6 |
| 20260502053014 | 11 | 75 | 0.0 | 9.7 | 0.00 | 0.00 | 0.00 | 60 | 1020.6 |
| 20260502051516 | 11 | 71 | 0.0 | 9.7 | 0.00 | 0.00 | 0.00 | 61 | 1020.6 |
| 20260502050011 | 11 | 48 | 0.0 | 0.0 | 0.00 | 0.00 | 0.00 | 61 | 1020.6 |
| 20260502044510 | 11 | 50 | 0.0 | 8.0 | 0.00 | 0.00 | 0.00 | 61 | 1020.3 |
| 20260502043008 | 11 | 65 | 1.6 | 11.3 | 0.00 | 0.00 | 0.00 | 61 | 1020.3 |
| 20260502041506 | 11 | 45 | 0.0 | 9.7 | 0.00 | 0.00 | 0.00 | 61 | 1020.5 |
| 20260502040006 | 11 | 65 | 0.0 | 4.8 | 0.00 | 0.00 | 0.00 | 61 | 1020.6 |
| 20260502034502 | 11 | 39 | 0.0 | 0.0 | 0.00 | 0.00 | 0.00 | 60 | 1020.7 |
| 20260502033101 | 11 | 7 | 0.0 | 8.0 | 0.00 | 0.00 | 0.00 | 59 | 1020.6 |
| 20260502031601 | 11 | 40 | 0.0 | 12.9 | 0.00 | 0.00 | 0.00 | 59 | 1020.5 |
| 20260502030058 | 11 | 69 | 0.0 | 6.4 | 0.00 | 0.00 | 0.00 | 58 | 1020.4 |
| 20260502024557 | 11 | 80 | 0.0 | 4.8 | 0.00 | 0.00 | 0.00 | 58 | 1020.5 |
| 20260502023056 | 11 | 69 | 0.0 | 1.6 | 0.00 | 0.00 | 0.00 | 58 | 1020.6 |
| 20260502021555 | 11 | 71 | 0.0 | 0.0 | 0.00 | 0.00 | 0.00 | 58 | 1020.6 |